| time (UTC) | temp F | wind direction | speed MPH | gust MPH | rain 1hr in | rain 24hr in | rain mn in | humidity % | barometer mb |
| 20260503005514 | 64 | 360 | 7.0 | 13.0 | 0.00 | 0.00 | 0.00 | 27 | 926.3 |
| 20260503005012 | 64 | 360 | 5.0 | 8.0 | 0.00 | 0.00 | 0.00 | 26 | 926.4 |
| 20260503004535 | 64 | 360 | 4.0 | 10.0 | 0.00 | 0.00 | 0.00 | 26 | 926.4 |
| 20260503004014 | 64 | 360 | 5.0 | 10.0 | 0.00 | 0.00 | 0.00 | 26 | 926.5 |
| 20260503003514 | 64 | 360 | 6.0 | 11.0 | 0.00 | 0.00 | 0.00 | 26 | 926.6 |
| 20260503003033 | 64 | 360 | 5.0 | 10.0 | 0.00 | 0.00 | 0.00 | 27 | 926.5 |
| 20260503002512 | 64 | 360 | 7.0 | 10.0 | 0.00 | 0.00 | 0.00 | 30 | 926.6 |
| 20260503002013 | 63 | 360 | 5.0 | 6.0 | 0.00 | 0.00 | 0.00 | 32 | 926.7 |
| 20260503001533 | 62 | 360 | 3.0 | 4.0 | 0.00 | 0.00 | 0.00 | 31 | 926.7 |
| 20260503001012 | 62 | 360 | 2.0 | 5.0 | 0.00 | 0.00 | 0.00 | 30 | 926.8 |
| 20260503000515 | 62 | 360 | 3.0 | 5.0 | 0.00 | 0.00 | 0.00 | 29 | 926.8 |
| 20260503000056 | 62 | 360 | 2.0 | 10.0 | 0.00 | 0.00 | 0.00 | 31 | 926.9 |
| 20260502235512 | 62 | 360 | 3.0 | 10.0 | 0.00 | 0.00 | 0.00 | 28 | 926.8 |
| 20260502235012 | 62 | 360 | 3.0 | 10.0 | 0.00 | 0.00 | 0.00 | 31 | 926.9 |
| 20260502234537 | 62 | 360 | 5.0 | 14.0 | 0.00 | 0.00 | 0.00 | 30 | 927.0 |
| 20260502234014 | 62 | 360 | 4.0 | 30.0 | 0.00 | 0.00 | 0.00 | 35 | 927.1 |
| 20260502233514 | 64 | 360 | 17.0 | 28.0 | 0.00 | 0.00 | 0.00 | 33 | 927.0 |
| 20260502233039 | 64 | 360 | 9.0 | 14.0 | 0.00 | 0.00 | 0.00 | 25 | 927.2 |
| 20260502232514 | 64 | 360 | 11.0 | 15.0 | 0.00 | 0.00 | 0.00 | 23 | 927.2 |
| 20260502232013 | 65 | 360 | 11.0 | 15.0 | 0.00 | 0.00 | 0.00 | 22 | 927.3 |
| 20260502231536 | 65 | 360 | 1.0 | 5.0 | 0.00 | 0.00 | 0.00 | 21 | 927.4 |
| 20260502231010 | 65 | 360 | 2.0 | 5.0 | 0.00 | 0.00 | 0.00 | 21 | 927.2 |
| 20260502230512 | 65 | 360 | 1.0 | 3.0 | 0.00 | 0.00 | 0.00 | 21 | 927.3 |
| 20260502230036 | 65 | 360 | 1.0 | 6.0 | 0.00 | 0.00 | 0.00 | 21 | 927.1 |
| 20260502225515 | 65 | 360 | 3.0 | 9.0 | 0.00 | 0.00 | 0.00 | 22 | 927.1 |
| 20260502225015 | 65 | 360 | 5.0 | 9.0 | 0.00 | 0.00 | 0.00 | 22 | 927.2 |
| 20260502224535 | 66 | 360 | 3.0 | 10.0 | 0.00 | 0.00 | 0.00 | 21 | 927.2 |
| 20260502224019 | 66 | 360 | 4.0 | 12.0 | 0.00 | 0.00 | 0.00 | 22 | 927.3 |
| 20260502223513 | 65 | 360 | 3.0 | 9.0 | 0.00 | 0.00 | 0.00 | 22 | 927.3 |
| 20260502223039 | 65 | 360 | 4.0 | 14.0 | 0.00 | 0.00 | 0.00 | 21 | 927.4 |
| 20260502222513 | 66 | 360 | 4.0 | 14.0 | 0.00 | 0.00 | 0.00 | 21 | 927.6 |
| 20260502222012 | 66 | 360 | 8.0 | 13.0 | 0.00 | 0.00 | 0.00 | 22 | 927.3 |
| 20260502221535 | 65 | 360 | 5.0 | 13.0 | 0.00 | 0.00 | 0.00 | 22 | 927.6 |
| 20260502221013 | 65 | 360 | 11.0 | 13.0 | 0.00 | 0.00 | 0.00 | 22 | 927.5 |
| 20260502220514 | 66 | 360 | 8.0 | 11.0 | 0.00 | 0.00 | 0.00 | 22 | 927.7 |
| 20260502220043 | 66 | 360 | 1.0 | 10.0 | 0.00 | 0.00 | 0.00 | 22 | 927.9 |
| 20260502215515 | 67 | 360 | 8.0 | 11.0 | 0.00 | 0.00 | 0.00 | 21 | 927.9 |
| 20260502215016 | 67 | 360 | 3.0 | 11.0 | 0.00 | 0.00 | 0.00 | 21 | 927.9 |
| 20260502214537 | 66 | 360 | 5.0 | 11.0 | 0.00 | 0.00 | 0.00 | 22 | 927.9 |
| 20260502214015 | 65 | 360 | 5.0 | 11.0 | 0.00 | 0.00 | 0.00 | 23 | 928.1 |
| 20260502213515 | 64 | 360 | 2.0 | 12.0 | 0.00 | 0.00 | 0.00 | 25 | 928.2 |
| 20260502213042 | 64 | 360 | 7.0 | 14.0 | 0.00 | 0.00 | 0.00 | 24 | 928.5 |
| 20260502212515 | 64 | 360 | 10.0 | 17.0 | 0.00 | 0.00 | 0.00 | 24 | 928.5 |
| 20260502212014 | 64 | 360 | 11.0 | 17.0 | 0.00 | 0.00 | 0.00 | 24 | 928.2 |
| 20260502211541 | 64 | 360 | 1.0 | 8.0 | 0.00 | 0.00 | 0.00 | 25 | 928.7 |
| 20260502211013 | 64 | 360 | 2.0 | 5.0 | 0.00 | 0.00 | 0.00 | 24 | 928.9 |
| 20260502210512 | 65 | 360 | 1.0 | 9.0 | 0.00 | 0.00 | 0.00 | 23 | 928.7 |
| 20260502210038 | 65 | 360 | 4.0 | 11.0 | 0.00 | 0.00 | 0.00 | 23 | 928.9 |
| 20260502205511 | 65 | 360 | 6.0 | 10.0 | 0.00 | 0.00 | 0.00 | 24 | 928.9 |
| 20260502205017 | 64 | 360 | 3.0 | 12.0 | 0.00 | 0.00 | 0.00 | 24 | 929.1 |
| 20260502204537 | 64 | 360 | 0.0 | 6.0 | 0.00 | 0.00 | 0.00 | 25 | 929.2 |
| 20260502204011 | 63 | 360 | 2.0 | 12.0 | 0.00 | 0.00 | 0.00 | 25 | 929.0 |
| 20260502203513 | 64 | 360 | 8.0 | 12.0 | 0.00 | 0.00 | 0.00 | 24 | 929.0 |
| 20260502203036 | 64 | 360 | 7.0 | 11.0 | 0.00 | 0.00 | 0.00 | 24 | 929.1 |
| 20260502202511 | 64 | 360 | 4.0 | 11.0 | 0.00 | 0.00 | 0.00 | 25 | 929.1 |
| 20260502202014 | 65 | 360 | 4.0 | 11.0 | 0.00 | 0.00 | 0.00 | 24 | 929.0 |
| 20260502201544 | 65 | 360 | 7.0 | 11.0 | 0.00 | 0.00 | 0.00 | 25 | 929.1 |
| 20260502201014 | 65 | 360 | 4.0 | 11.0 | 0.00 | 0.00 | 0.00 | 25 | 929.3 |
| 20260502200513 | 64 | 360 | 8.0 | 12.0 | 0.00 | 0.00 | 0.00 | 25 | 929.2 |
| 20260502200051 | 64 | 360 | 7.0 | 12.0 | 0.00 | 0.00 | 0.00 | 26 | 929.6 |
| 20260502195512 | 63 | 360 | 3.0 | 6.0 | 0.00 | 0.00 | 0.00 | 27 | 929.5 |
| 20260502195016 | 62 | 360 | 0.0 | 4.0 | 0.00 | 0.00 | 0.00 | 27 | 929.5 |
| 20260502194541 | 62 | 360 | 0.0 | 6.0 | 0.00 | 0.00 | 0.00 | 27 | 929.6 |
| 20260502194013 | 62 | 360 | 0.0 | 4.0 | 0.00 | 0.00 | 0.00 | 27 | 929.6 |
| 20260502193513 | 62 | 360 | 1.0 | 14.0 | 0.00 | 0.00 | 0.00 | 27 | 929.8 |
| 20260502193042 | 62 | 360 | 7.0 | 14.0 | 0.00 | 0.00 | 0.00 | 27 | 929.8 |
| 20260502192517 | 63 | 360 | 8.0 | 15.0 | 0.00 | 0.00 | 0.00 | 26 | 929.9 |
| 20260502192013 | 63 | 360 | 9.0 | 15.0 | 0.00 | 0.00 | 0.00 | 27 | 929.9 |
| 20260502191556 | 63 | 360 | 8.0 | 12.0 | 0.00 | 0.00 | 0.00 | 26 | 930.0 |
| 20260502191012 | 63 | 360 | 0.0 | 6.0 | 0.00 | 0.00 | 0.00 | 27 | 930.0 |
| 20260502190516 | 63 | 360 | 2.0 | 9.0 | 0.00 | 0.00 | 0.00 | 27 | 930.2 |
| 20260502190048 | 62 | 360 | 2.0 | 10.0 | 0.00 | 0.00 | 0.00 | 27 | 930.4 |
| 20260502185512 | 62 | 360 | 2.0 | 10.0 | 0.00 | 0.00 | 0.00 | 28 | 930.3 |
| 20260502185012 | 62 | 360 | 5.0 | 9.0 | 0.00 | 0.00 | 0.00 | 28 | 930.5 |
| 20260502184535 | 61 | 360 | 1.0 | 5.0 | 0.00 | 0.00 | 0.00 | 28 | 930.6 |
| 20260502184015 | 61 | 360 | 2.0 | 9.0 | 0.00 | 0.00 | 0.00 | 28 | 930.6 |
| 20260502183513 | 62 | 360 | 6.0 | 10.0 | 0.00 | 0.00 | 0.00 | 28 | 930.4 |
| 20260502183040 | 62 | 360 | 4.0 | 8.0 | 0.00 | 0.00 | 0.00 | 28 | 930.4 |
| 20260502182512 | 62 | 360 | 0.0 | 9.0 | 0.00 | 0.00 | 0.00 | 29 | 930.5 |
| 20260502182013 | 61 | 360 | 2.0 | 10.0 | 0.00 | 0.00 | 0.00 | 29 | 930.8 |
| 20260502181544 | 61 | 360 | 5.0 | 11.0 | 0.00 | 0.00 | 0.00 | 30 | 930.6 |
| 20260502181015 | 61 | 360 | 7.0 | 11.0 | 0.00 | 0.00 | 0.00 | 29 | 930.6 |
| 20260502180512 | 61 | 360 | 3.0 | 10.0 | 0.00 | 0.00 | 0.00 | 30 | 930.5 |
| 20260502170515 | 60 | 360 | 4.0 | 8.0 | 0.00 | 0.00 | 0.00 | 31 | 930.8 |
| 20260502164015 | 58 | 360 | 3.0 | 9.0 | 0.00 | 0.00 | 0.00 | 33 | 930.7 |
| 20260502163515 | 58 | 360 | 5.0 | 11.0 | 0.00 | 0.00 | 0.00 | 33 | 930.6 |
| 20260502163049 | 59 | 360 | 6.0 | 11.0 | 0.00 | 0.00 | 0.00 | 33 | 930.9 |
| 20260502162515 | 58 | 360 | 2.0 | 13.0 | 0.00 | 0.00 | 0.00 | 33 | 930.9 |
| 20260502162016 | 58 | 360 | 3.0 | 13.0 | 0.00 | 0.00 | 0.00 | 35 | 930.9 |
| 20260502161539 | 58 | 360 | 8.0 | 11.0 | 0.00 | 0.00 | 0.00 | 34 | 931.0 |
| 20260502161014 | 58 | 360 | 4.0 | 10.0 | 0.00 | 0.00 | 0.00 | 34 | 930.9 |
| 20260502160517 | 57 | 360 | 3.0 | 13.0 | 0.00 | 0.00 | 0.00 | 35 | 930.8 |
| 20260502152015 | 55 | 360 | 7.0 | 12.0 | 0.00 | 0.00 | 0.00 | 39 | 931.1 |
| 20260502151556 | 54 | 360 | 6.0 | 12.0 | 0.00 | 0.00 | 0.00 | 41 | 931.1 |
| 20260502151015 | 54 | 360 | 7.0 | 11.0 | 0.00 | 0.00 | 0.00 | 41 | 931.1 |
| 20260502150515 | 53 | 360 | 7.0 | 13.0 | 0.00 | 0.00 | 0.00 | 42 | 931.0 |
| 20260502130516 | 43 | 360 | 9.0 | 11.0 | 0.00 | 0.00 | 0.00 | 55 | 930.5 |
| 20260502123516 | 44 | 360 | 5.0 | 8.0 | 0.00 | 0.00 | 0.00 | 50 | 930.3 |
| 20260502123041 | 44 | 360 | 4.0 | 5.0 | 0.00 | 0.00 | 0.00 | 51 | 930.3 |
| 20260502122513 | 44 | 360 | 3.0 | 6.0 | 0.00 | 0.00 | 0.00 | 50 | 930.1 |
| 20260502122015 | 44 | 360 | 4.0 | 9.0 | 0.00 | 0.00 | 0.00 | 50 | 929.9 |
| 20260502121544 | 45 | 360 | 6.0 | 10.0 | 0.00 | 0.00 | 0.00 | 50 | 930.0 |
| 20260502121016 | 45 | 360 | 7.0 | 12.0 | 0.00 | 0.00 | 0.00 | 50 | 929.8 |
| 20260502120515 | 45 | 360 | 9.0 | 13.0 | 0.00 | 0.00 | 0.00 | 49 | 929.8 |
| 20260502115514 | 46 | 360 | 11.0 | 14.0 | 0.00 | 0.00 | 0.00 | 49 | 929.6 |
| 20260502115203 | 46 | 360 | 12.0 | 14.0 | 0.00 | 0.00 | 0.00 | 49 | 929.6 |
| 20260502114529 | 46 | 360 | 10.0 | 14.0 | 0.00 | 0.00 | 0.00 | 48 | 929.5 |
| 20260502114012 | 46 | 360 | 11.0 | 16.0 | 0.00 | 0.00 | 0.00 | 48 | 929.4 |
| 20260502113515 | 46 | 360 | 11.0 | 16.0 | 0.00 | 0.00 | 0.00 | 48 | 929.3 |
| 20260502113048 | 46 | 360 | 12.0 | 17.0 | 0.00 | 0.00 | 0.00 | 47 | 929.5 |
| 20260502112512 | 47 | 360 | 15.0 | 17.0 | 0.00 | 0.00 | 0.00 | 47 | 929.1 |
| 20260502112012 | 47 | 360 | 14.0 | 19.0 | 0.00 | 0.00 | 0.00 | 46 | 929.2 |
| 20260502111535 | 47 | 360 | 16.0 | 19.0 | 0.00 | 0.00 | 0.00 | 46 | 929.2 |
| 20260502111012 | 48 | 360 | 14.0 | 19.0 | 0.00 | 0.00 | 0.00 | 44 | 929.1 |
| 20260502110514 | 48 | 360 | 14.0 | 19.0 | 0.00 | 0.00 | 0.00 | 44 | 929.0 |
| 20260502110037 | 48 | 360 | 13.0 | 19.0 | 0.00 | 0.00 | 0.00 | 44 | 929.0 |
| 20260502105515 | 48 | 360 | 15.0 | 22.0 | 0.00 | 0.00 | 0.00 | 44 | 928.9 |
| 20260502105015 | 48 | 360 | 16.0 | 22.0 | 0.00 | 0.00 | 0.00 | 43 | 928.9 |
| 20260502104535 | 49 | 360 | 16.0 | 21.0 | 0.00 | 0.00 | 0.00 | 42 | 928.8 |
| 20260502104015 | 49 | 360 | 17.0 | 23.0 | 0.00 | 0.00 | 0.00 | 42 | 928.7 |
| 20260502103510 | 50 | 360 | 19.0 | 23.0 | 0.00 | 0.00 | 0.00 | 41 | 928.6 |
| 20260502103031 | 50 | 360 | 18.0 | 23.0 | 0.00 | 0.00 | 0.00 | 41 | 928.5 |
| 20260502102514 | 49 | 360 | 20.0 | 23.0 | 0.00 | 0.00 | 0.00 | 42 | 928.4 |
| 20260502102014 | 48 | 360 | 19.0 | 23.0 | 0.00 | 0.00 | 0.00 | 43 | 928.2 |
| 20260502101531 | 48 | 360 | 18.0 | 20.0 | 0.00 | 0.00 | 0.00 | 44 | 928.1 |
| 20260502101012 | 47 | 360 | 13.0 | 17.0 | 0.00 | 0.00 | 0.00 | 44 | 928.2 |
| 20260502100511 | 47 | 360 | 13.0 | 16.0 | 0.00 | 0.00 | 0.00 | 43 | 928.3 |
| 20260502091534 | 49 | 360 | 16.0 | 21.0 | 0.00 | 0.00 | 0.00 | 43 | 927.3 |
| 20260502091014 | 49 | 360 | 17.0 | 22.0 | 0.00 | 0.00 | 0.00 | 42 | 927.3 |
| 20260502090516 | 50 | 360 | 17.0 | 26.0 | 0.00 | 0.00 | 0.00 | 42 | 927.2 |
| 20260502071535 | 52 | 360 | 9.0 | 14.0 | 0.00 | 0.00 | 0.00 | 33 | 926.9 |
| 20260502071011 | 52 | 360 | 9.0 | 14.0 | 0.00 | 0.00 | 0.00 | 32 | 926.8 |
| 20260502070513 | 52 | 360 | 10.0 | 13.0 | 0.00 | 0.00 | 0.00 | 32 | 926.8 |
| 20260502070055 | 52 | 360 | 10.0 | 13.0 | 0.00 | 0.00 | 0.00 | 32 | 926.9 |
| 20260502065513 | 52 | 360 | 10.0 | 14.0 | 0.00 | 0.00 | 0.00 | 32 | 926.7 |
| 20260502065015 | 52 | 360 | 11.0 | 14.0 | 0.00 | 0.00 | 0.00 | 32 | 926.9 |
| 20260502064553 | 52 | 360 | 11.0 | 13.0 | 0.00 | 0.00 | 0.00 | 32 | 926.9 |
| 20260502064016 | 52 | 360 | 9.0 | 12.0 | 0.00 | 0.00 | 0.00 | 31 | 926.8 |
| 20260502063511 | 52 | 360 | 8.0 | 10.0 | 0.00 | 0.00 | 0.00 | 32 | 926.7 |
| 20260502063042 | 52 | 360 | 8.0 | 10.0 | 0.00 | 0.00 | 0.00 | 31 | 926.8 |
| 20260502062512 | 52 | 360 | 7.0 | 10.0 | 0.00 | 0.00 | 0.00 | 30 | 926.6 |
| 20260502062015 | 53 | 360 | 7.0 | 9.0 | 0.00 | 0.00 | 0.00 | 30 | 926.7 |
| 20260502061533 | 53 | 360 | 7.0 | 9.0 | 0.00 | 0.00 | 0.00 | 29 | 926.6 |
| 20260502061017 | 53 | 360 | 7.0 | 10.0 | 0.00 | 0.00 | 0.00 | 29 | 926.8 |
| 20260502060515 | 54 | 360 | 8.0 | 11.0 | 0.00 | 0.00 | 0.00 | 28 | 926.7 |
| 20260502060038 | 54 | 360 | 9.0 | 11.0 | 0.00 | 0.00 | 0.00 | 29 | 926.6 |
| 20260502055516 | 54 | 360 | 9.0 | 11.0 | 0.00 | 0.00 | 0.00 | 29 | 926.7 |
| 20260502055012 | 54 | 360 | 9.0 | 11.0 | 0.00 | 0.00 | 0.00 | 29 | 926.8 |
| 20260502054538 | 53 | 360 | 9.0 | 11.0 | 0.00 | 0.00 | 0.00 | 29 | 926.7 |
| 20260502054012 | 53 | 360 | 8.0 | 11.0 | 0.00 | 0.00 | 0.00 | 29 | 926.7 |
| 20260502053512 | 53 | 360 | 9.0 | 11.0 | 0.00 | 0.00 | 0.00 | 30 | 926.7 |
| 20260502053038 | 52 | 360 | 8.0 | 11.0 | 0.00 | 0.00 | 0.00 | 30 | 926.7 |
| 20260502052515 | 52 | 360 | 8.0 | 11.0 | 0.00 | 0.00 | 0.00 | 29 | 926.7 |
| 20260502052015 | 53 | 360 | 9.0 | 14.0 | 0.00 | 0.00 | 0.00 | 29 | 926.8 |
| 20260502051537 | 53 | 360 | 10.0 | 15.0 | 0.00 | 0.00 | 0.00 | 29 | 926.7 |
| 20260502051018 | 53 | 360 | 12.0 | 15.0 | 0.00 | 0.00 | 0.00 | 29 | 926.7 |
| 20260502050517 | 52 | 360 | 10.0 | 15.0 | 0.00 | 0.00 | 0.00 | 29 | 926.7 |
| 20260502050039 | 53 | 360 | 8.0 | 11.0 | 0.00 | 0.00 | 0.00 | 27 | 926.7 |
| 20260502045512 | 53 | 360 | 5.0 | 9.0 | 0.00 | 0.00 | 0.00 | 27 | 926.6 |
| 20260502045014 | 53 | 360 | 7.0 | 9.0 | 0.00 | 0.00 | 0.00 | 27 | 926.6 |
| 20260502044542 | 52 | 360 | 6.0 | 8.0 | 0.00 | 0.00 | 0.00 | 27 | 926.6 |
| 20260502044015 | 53 | 360 | 5.0 | 9.0 | 0.00 | 0.00 | 0.00 | 26 | 926.7 |
| 20260502043515 | 53 | 360 | 5.0 | 9.0 | 0.00 | 0.00 | 0.00 | 25 | 926.7 |
| 20260502043039 | 54 | 360 | 5.0 | 6.0 | 0.00 | 0.00 | 0.00 | 25 | 926.6 |
| 20260502042512 | 54 | 360 | 5.0 | 6.0 | 0.00 | 0.00 | 0.00 | 25 | 926.5 |
| 20260502042015 | 54 | 360 | 5.0 | 8.0 | 0.00 | 0.00 | 0.00 | 25 | 926.4 |
| 20260502041545 | 54 | 360 | 5.0 | 8.0 | 0.00 | 0.00 | 0.00 | 25 | 926.4 |
| 20260502041014 | 54 | 360 | 6.0 | 8.0 | 0.00 | 0.00 | 0.00 | 25 | 926.5 |
| 20260502040515 | 55 | 360 | 2.0 | 8.0 | 0.00 | 0.00 | 0.00 | 23 | 926.4 |
| 20260502040038 | 55 | 360 | 6.0 | 9.0 | 0.00 | 0.00 | 0.00 | 23 | 926.4 |
| 20260502035517 | 56 | 360 | 6.0 | 9.0 | 0.00 | 0.00 | 0.00 | 23 | 926.5 |
| 20260502035017 | 56 | 360 | 5.0 | 9.0 | 0.00 | 0.00 | 0.00 | 22 | 926.5 |
| 20260502034543 | 57 | 360 | 6.0 | 9.0 | 0.00 | 0.00 | 0.00 | 21 | 926.3 |
| 20260502034019 | 57 | 360 | 5.0 | 8.0 | 0.00 | 0.00 | 0.00 | 21 | 926.3 |
| 20260502033516 | 58 | 360 | 5.0 | 10.0 | 0.00 | 0.00 | 0.00 | 20 | 926.3 |
| 20260502033039 | 58 | 360 | 6.0 | 11.0 | 0.00 | 0.00 | 0.00 | 19 | 926.3 |
| 20260502032514 | 58 | 360 | 8.0 | 11.0 | 0.00 | 0.00 | 0.00 | 20 | 926.3 |
| 20260502032017 | 59 | 360 | 8.0 | 11.0 | 0.00 | 0.00 | 0.00 | 19 | 926.2 |
| 20260502031537 | 60 | 360 | 8.0 | 11.0 | 0.00 | 0.00 | 0.00 | 18 | 926.1 |
| 20260502031015 | 60 | 360 | 9.0 | 11.0 | 0.00 | 0.00 | 0.00 | 18 | 926.1 |
| 20260502030514 | 60 | 360 | 8.0 | 10.0 | 0.00 | 0.00 | 0.00 | 18 | 925.9 |
| 20260502030039 | 60 | 360 | 6.0 | 10.0 | 0.00 | 0.00 | 0.00 | 17 | 925.8 |
| 20260502025515 | 61 | 360 | 5.0 | 14.0 | 0.00 | 0.00 | 0.00 | 16 | 926.0 |
| 20260502025015 | 62 | 360 | 9.0 | 15.0 | 0.00 | 0.00 | 0.00 | 16 | 926.1 |
| 20260502024558 | 63 | 360 | 11.0 | 15.0 | 0.00 | 0.00 | 0.00 | 15 | 926.0 |
| 20260502024018 | 63 | 360 | 11.0 | 16.0 | 0.00 | 0.00 | 0.00 | 15 | 925.9 |
| 20260502023514 | 64 | 360 | 12.0 | 17.0 | 0.00 | 0.00 | 0.00 | 14 | 925.9 |
| 20260502023057 | 64 | 360 | 13.0 | 17.0 | 0.00 | 0.00 | 0.00 | 14 | 926.0 |
| 20260502022515 | 64 | 360 | 11.0 | 15.0 | 0.00 | 0.00 | 0.00 | 13 | 925.8 |
| 20260502022017 | 65 | 360 | 11.0 | 14.0 | 0.00 | 0.00 | 0.00 | 13 | 925.8 |
| 20260502021548 | 66 | 360 | 10.0 | 14.0 | 0.00 | 0.00 | 0.00 | 12 | 925.8 |
| 20260502021015 | 66 | 360 | 11.0 | 16.0 | 0.00 | 0.00 | 0.00 | 11 | 926.0 |
| 20260502020517 | 67 | 360 | 11.0 | 16.0 | 0.00 | 0.00 | 0.00 | 10 | 925.9 |
| 20260502020054 | 68 | 360 | 10.0 | 17.0 | 0.00 | 0.00 | 0.00 | 10 | 926.1 |
| 20260502015517 | 69 | 360 | 14.0 | 18.0 | 0.00 | 0.00 | 0.00 | 9 | 925.8 |
| 20260502015016 | 70 | 360 | 14.0 | 18.0 | 0.00 | 0.00 | 0.00 | 8 | 925.8 |
| 20260502014539 | 70 | 360 | 13.0 | 19.0 | 0.00 | 0.00 | 0.00 | 8 | 925.8 |
| 20260502014019 | 70 | 360 | 14.0 | 19.0 | 0.00 | 0.00 | 0.00 | 8 | 925.7 |
| 20260502013515 | 71 | 360 | 15.0 | 18.0 | 0.00 | 0.00 | 0.00 | 7 | 925.6 |
| 20260502013044 | 71 | 360 | 14.0 | 17.0 | 0.00 | 0.00 | 0.00 | 6 | 925.7 |
| 20260502012515 | 71 | 360 | 10.0 | 16.0 | 0.00 | 0.00 | 0.00 | 7 | 925.8 |
| 20260502012015 | 71 | 360 | 13.0 | 17.0 | 0.00 | 0.00 | 0.00 | 7 | 925.8 |
| 20260502011542 | 71 | 360 | 13.0 | 18.0 | 0.00 | 0.00 | 0.00 | 5 | 925.7 |
| 20260502011014 | 72 | 360 | 13.0 | 18.0 | 0.00 | 0.00 | 0.00 | 6 | 925.8 |
| 20260502010518 | 71 | 360 | 13.0 | 19.0 | 0.00 | 0.00 | 0.00 | 5 | 925.7 |
| 20260502010037 | 72 | 360 | 14.0 | 20.0 | 0.00 | 0.00 | 0.00 | 5 | 925.7 |